Regional Weather Roundup
Issued by NWS

Home | Current Version | Previous Version | Graphics & Text | Print | Product List | Glossary On
Versions: 1 2 3 4 5 6 7 8 9 10 11 12 13 14 15 16 17 18 19 20 21 22 23 24 25 26 27 28 29 30 31 32 33 34 35 36 37 38 39 40 41 42 43 44 45 46 47 48 49 50
000
ASUS43 KIND 152259
RWRIN

WEATHER ROUNDUP FOR INDIANA
NATIONAL WEATHER SERVICE INDIANAPOLIS IN
700 PM EDT TUE APR 15 2014

NOTE: "FAIR" INDICATES FEW OR NO CLOUDS BELOW 12,000 FEET WITH NO
SIGNIFICANT WEATHER AND/OR OBSTRUCTIONS TO VISIBILITY.

* - STATION DOES NOT REPORT WEATHER SUCH AS PRECIPITATION OR FOG.

+ - STATION NOT QUALITY CONTROLLED BY THE NATIONAL WEATHER SERVICE.
    USE DATA WITH CAUTION...ESPECIALLY DEWPOINT AND RELATIVE
    HUMIDITY OBSERVATIONS.

INZ001>003-010>013-019-020-160000-
NORTHWEST INDIANA

CITY           SKY/WX    TMP DP  RH WIND       PRES   REMARKS
GARY /AIRPORT/ MOSUNNY   36  18  48 NE5       30.17R
VALPARAISO     MOSUNNY   33  12  41 W9        30.17R WCI  25

$$

LMZ046-743>745-160000-
SOUTHERN LAKE MICHIGAN

STATION/POSITION TIME  TEMP WIND        PRES
                       AIR  DIR/SP/G
                 (UTC) (F)  (DEG/KT/KT) (MB)
MICHIGAN CITY    2200   31   10/  6/  9   N/A

$$

INZ004-005-014>016-021>024-160000-
NORTH CENTRAL INDIANA

CITY           SKY/WX    TMP DP  RH WIND       PRES   REMARKS
GOSHEN         SUNNY     34   9  35 NW12G18   30.16S WCI  25
SOUTH BEND     SUNNY     35  11  36 NW12      30.18R WCI  27

$$

INZ006>009-017-018-025>027-160000-
NORTHEAST INDIANA

CITY           SKY/WX    TMP DP  RH WIND       PRES   REMARKS
ANGOLA *+      MOSUNNY   32  10  40 NW16      30.14R WCI  21
FORT WAYNE     MOSUNNY   34  10  37 NW13      30.17R WCI  25

$$

INZ028-029-035-036-043>045-051>053-160000-
WEST CENTRAL INDIANA

CITY           SKY/WX    TMP DP  RH WIND       PRES   REMARKS
GREENCASTLE +  CLOUDY    37  18  44 NW7       30.19S
LAFAYETTE      CLOUDY    36  15  42 VRB7      30.19R
TERRE HAUTE    CLOUDY    39  21  48 N8        30.19S

$$

INZ030>032-037>040-046>048-054>057-064-065-160000-
CENTRAL INDIANA

CITY           SKY/WX    TMP DP  RH WIND       PRES   REMARKS
COLUMBUS       MOSUNNY   37  19  48 MISG      30.20R
INDIANAPOLIS   PTSUNNY   35  17  47 N12       30.18R WCI  27
-EAGLE CREEK   PTSUNNY   35  16  45 NW10      30.17R WCI  27
KOKOMO *+      PTSUNNY   36  14  41 NW10      30.17S
MT COMFORT *+  MOSUNNY   36  19  51 NW12      30.19R
SHELBYVILLE    CLOUDY    39  19  44 NW10      30.18R

$$

INZ033-034-041-042-049-050-058-059-160000-
EAST CENTRAL INDIANA

CITY           SKY/WX    TMP DP  RH WIND       PRES   REMARKS
MUNCIE         CLOUDY    34  16  47 NW13      30.17R WCI  25

$$

INZ060-061-067>069-081>083-085>088-160000-
SOUTHWEST INDIANA

CITY           SKY/WX    TMP DP  RH WIND       PRES   REMARKS
EVANSVILLE     PTSUNNY   43  22  43 N9        30.22R
HUNTINGBURG *+ SUNNY     39  19  45 N10       30.21R

$$

INZ062-063-066-070>080-084-089>092-160000-
SOUTH CENTRAL AND SOUTHEAST INDIANA

CITY           SKY/WX    TMP DP  RH WIND       PRES   REMARKS
BLOOMINGTON    PTSUNNY   37  16  42 W9        30.18R

$$




USA.gov is the U.S. government's official web portal to all federal, state and local government web resources and services.